Location: Shepherdstown, WV
(39.4326°N, 77.8042°W)
Time: 19:20:59
(UTC-04:00)

X-37B - Pass Details

Date: 02 July 2021
Orbit: 383 x 392 km, 45.0° (Epoch: 01 July)

Event Time Altitude Azimuth Distance (km) Brightness Sun altitude
Rises 21:57:46 0° 295° (WNW) 2,259 6.0 -12.4°
Reaches altitude 10° 21:59:55 10° 303° (WNW) 1,404 4.8 -12.7°
Maximum altitude 22:02:55 40° 15° (NNE) 577 1.7 -13.1°
Enters shadow 22:05:18 15° 83° (E) 1,163 2.6 -13.4°
